Theta_e
334 333 335 342 348 348 346 343 342 337 338 341 336 342 344 344 346 344 348 349 349 345 343 343 343 344 344 346 347 347 347 348 348 348 347 348 349 351
325 327 332 334 335 338 345 348 343 343 337 343 345 344 345 348 350 347 346 346 346 345 343 341 341 342 342 342 344 344 344 344 344 344 343 342 343 344
321 321 323 326 328 331 334 335 337 342 340 342 346 347 345 346 348 350 349 345 346 344 342 342 340 339 340 340 340 341 342 342 342 342 342 341 341 342
317 317 317 320 318 319 323 329 330 330 333 332 336 345 345 347 348 345 349 353 347 346 343 342 340 338 337 336 336 336 335 336 338 338 339 340 340 341
316 316 316 317 316 317 318 319 322 330 328 325 326 334 342 344 347 346 346 349 352 350 343 340 339 338 335 334 333 330 328 328 330 331 332 334 335 337
313 313 313 313 313 315 317 317 319 320 324 327 329 329 333 344 347 345 344 345 346 351 350 345 342 340 338 335 333 331 326 323 323 324 325 324 324 327
310 311 312 315 319 319 316 316 317 317 318 320 321 323 322 322 323 335 339 341 344 343 345 346 346 347 346 338 340 336 330 327 324 322 321 319 319 321
308 309 309 313 313 318 320 322 321 316 315 317 322 322 322 321 318 317 327 330 328 344 342 342 343 341 344 342 339 334 330 328 326 324 321 319 318 319
308 308 308 310 312 311 315 319 320 321 322 319 315 317 321 324 323 316 322 326 328 335 338 336 344 343 347 347 334 331 328 326 325 325 323 320 318 317
308 309 308 308 309 310 310 312 314 316 316 318 317 317 319 324 326 325 323 322 326 332 336 333 339 339 346 345 336 333 329 326 324 323 322 319 316 314
310 310 311 310 313 313 310 309 312 314 319 320 321 320 320 321 321 319 317 318 317 318 326 338 339 341 341 341 341 331 328 325 323 323 321 318 314 312
310 310 313 312 312 311 309 308 307 310 315 317 317 318 320 320 322 321 319 315 316 316 320 328 336 339 329 338 341 337 335 320 316 315 316 315 311 325
308 308 310 311 310 308 309 308 308 311 314 316 317 318 318 316 316 318 322 322 318 317 323 331 335 334 332 331 333 335 335 328 327 318 310 310 311 324
307 309 310 309 307 305 306 308 308 310 311 313 313 313 314 316 317 318 320 324 327 324 326 327 327 332 331 329 332 333 335 333 332 330 326 315 311 313
309 310 310 308 306 306 308 308 308 307 308 311 312 313 314 316 317 317 319 320 322 323 330 333 334 334 336 333 332 331 331 337 335 334 331 327 325 322
310 308 311 311 309 309 309 309 309 309 309 311 312 313 315 314 313 315 314 316 318 323 334 337 337 337 335 336 337 335 333 332 337 337 335 332 331 328
304 307 309 308 307 307 309 313 313 314 313 314 313 312 312 312 312 313 315 317 315 318 324 330 331 338 337 333 335 338 338 336 335 337 334 331 330 330
304 306 307 307 307 307 309 311 314 315 315 314 314 314 314 314 313 314 317 319 319 321 325 327 321 321 319 318 319 333 332 333 335 337 338 334 330 329
304 305 306 307 307 307 308 309 310 313 315 315 315 314 315 316 314 314 317 320 320 322 324 326 328 327 323 323 316 312 322 322 329 330 329 327 325 317
303 303 303 305 307 306 307 308 309 311 313 313 314 315 315 317 317 313 313 314 318 321 323 328 329 328 326 325 314 311 307 317 324 319 311 309 311 314
304 303 301 302 304 306 305 307 308 308 310 311 315 316 318 319 319 319 319 312 316 322 322 325 325 323 319 317 311 308 309 309 314 315 310 310 309 309
304 302 302 301 300 302 303 304 306 307 308 309 310 313 314 317 320 321 323 323 323 324 322 317 318 318 316 314 309 308 308 311 311 311 311 312 312 308
305 303 301 300 300 300 301 301 302 306 307 307 308 308 309 312 314 319 321 320 317 316 316 315 315 316 314 312 310 309 309 309 309 308 307 309 309 309
Wind_Speed
8 6 6 7 6 4 3 3 4 8 12 4 4 4 5 5 6 5 6 11 17 17 17 17 16 16 16 14 14 14 14 14 13 13 12 12 12 11
8 11 9 8 9 6 6 5 5 7 11 8 8 5 6 7 7 6 6 11 13 17 17 17 17 17 16 15 15 15 15 15 15 14 13 12 12 12
8 10 12 11 10 10 9 8 8 6 10 14 8 7 7 9 9 9 6 7 8 15 18 18 18 18 17 17 16 16 17 17 16 14 14 13 12 11
12 11 12 10 11 10 10 12 10 9 8 16 14 12 9 7 9 8 7 6 7 11 16 18 19 18 17 17 16 17 15 16 16 16 15 14 12 11
12 13 15 14 14 11 11 11 11 9 8 8 12 11 11 8 8 6 7 9 6 10 13 16 18 19 18 18 18 17 16 16 14 14 14 13 11 11
10 11 13 14 16 16 14 13 12 12 11 9 11 11 9 5 4 6 8 3 7 9 12 15 11 16 19 19 17 16 16 16 16 16 15 14 13 13
10 11 12 17 27 23 15 15 16 14 12 12 12 11 10 9 9 4 6 5 6 4 7 7 4 6 7 12 11 16 17 16 17 16 15 15 14 13
13 15 14 21 18 25 27 28 23 17 17 14 12 13 14 10 7 5 5 6 10 4 4 4 1 4 6 5 10 13 13 15 16 17 16 16 16 15
14 15 16 14 22 17 24 28 27 28 28 18 18 17 16 12 10 6 7 8 12 10 6 13 9 9 7 6 11 12 13 14 12 14 14 15 16 16
14 18 20 21 19 20 20 21 20 18 18 15 18 16 16 14 14 13 10 5 7 9 11 14 10 12 10 6 11 12 11 12 13 15 16 17 17 16
16 21 22 24 27 29 21 22 22 19 17 23 25 25 22 21 21 12 13 11 11 9 8 11 11 11 7 7 8 15 16 17 16 15 13 13 14 12
19 21 29 27 31 29 21 20 22 17 16 15 14 17 17 16 22 18 12 14 14 14 10 9 9 6 4 7 10 5 6 9 7 7 9 11 14 7
16 18 18 31 32 31 27 19 21 17 18 14 12 11 12 12 10 12 13 11 14 17 12 10 8 6 5 5 2 3 4 3 3 3 8 13 17 13
16 16 19 33 35 34 25 26 26 22 13 13 12 11 11 11 11 11 14 13 12 16 13 15 13 12 8 5 7 3 4 4 4 3 5 6 10 12
14 23 35 30 28 21 19 22 22 12 12 12 11 10 10 10 13 13 11 14 17 14 15 17 12 13 10 9 6 5 4 4 5 5 5 7 7 5
20 18 22 22 20 18 15 11 9 9 11 11 11 11 10 10 12 11 12 12 11 12 14 17 15 13 10 9 8 7 4 5 4 5 5 5 5 6
19 11 12 13 13 12 9 9 8 8 8 9 10 10 11 11 12 11 12 11 11 12 11 6 3 7 7 6 8 10 8 5 5 6 5 5 5 7
8 10 12 12 14 13 13 11 9 11 8 9 10 10 11 11 11 11 11 12 12 11 9 4 4 4 2 1 3 5 4 5 4 7 7 7 5 5
6 9 11 11 12 13 13 12 13 10 10 9 9 10 11 12 12 11 8 10 10 9 8 6 7 9 9 9 3 6 4 3 3 3 1 1 3 2
5 7 10 12 11 11 12 12 14 14 11 8 10 12 11 12 10 11 10 11 10 9 9 8 11 11 13 11 6 3 4 2 3 4 3 2 4 6
5 7 6 7 9 10 10 11 12 14 14 13 11 9 9 11 12 11 10 11 11 9 10 8 5 7 7 8 5 3 3 2 4 3 5 3 3 2
4 5 7 6 7 8 9 10 11 13 14 15 15 14 12 9 6 7 8 9 9 10 4 5 4 6 1 3 7 7 5 4 12 17 11 4 5 6
5 5 5 5 6 6 7 8 8 9 11 13 14 14 14 13 11 7 1 3 5 6 6 7 3 1 5 6 13 7 11 6 5 8 8 11 15 20
Wind_Direction
327 313 315 313 300 288 266 221 247 296 294 280 276 259 286 293 270 277 236 234 226 221 216 219 224 226 227 221 218 220 222 223 223 227 229 231 237 250
334 330 327 323 313 302 291 275 225 252 281 292 283 277 280 290 293 280 257 250 245 240 224 224 230 233 232 230 221 221 221 222 222 224 229 228 229 238
332 332 324 336 334 328 314 296 287 272 275 288 280 276 270 275 284 281 255 245 246 237 234 236 234 236 233 237 230 226 226 223 221 217 224 229 231 235
327 321 314 312 306 304 302 310 296 279 272 280 288 291 270 258 265 269 277 264 240 240 227 234 239 237 237 238 235 234 230 226 221 216 214 220 225 234
322 321 317 314 306 301 293 289 287 294 278 266 277 274 269 273 266 265 267 273 269 258 248 242 239 238 239 238 236 237 229 227 222 215 214 214 218 231
309 305 301 298 296 298 291 286 285 280 279 282 279 279 281 291 260 273 275 263 270 265 256 252 242 232 235 238 231 235 230 223 220 216 211 210 212 226
288 288 288 291 294 288 284 281 279 275 274 269 267 274 273 274 268 265 288 294 293 264 268 264 247 238 244 239 239 234 237 222 218 211 214 211 212 216
312 312 302 302 294 288 279 276 271 272 267 269 273 261 262 263 256 242 251 270 282 249 244 276 339 277 265 243 233 232 226 227 218 212 210 211 209 209
298 303 298 292 299 290 285 274 267 265 262 262 262 260 267 269 271 247 247 251 262 264 289 277 271 273 259 247 234 225 229 228 223 225 217 214 214 205
291 299 295 293 285 286 284 280 270 262 259 255 253 255 257 262 253 259 263 248 271 273 251 260 264 263 264 244 246 247 239 236 233 229 224 214 210 206
297 299 300 296 292 287 279 281 277 269 264 256 254 256 256 258 261 266 261 269 262 251 250 254 249 252 245 251 242 234 237 239 235 233 227 210 204 191
302 306 304 299 295 289 277 271 274 275 272 266 258 255 250 248 245 250 254 248 255 262 243 246 252 242 259 240 235 215 223 231 248 241 218 205 172 183
307 305 305 305 298 288 271 263 265 276 276 271 268 264 253 247 247 250 248 243 247 253 246 233 236 228 225 252 259 206 189 173 186 194 202 190 185 191
302 300 303 307 304 303 290 262 261 268 268 263 258 258 255 251 247 247 252 255 245 243 242 230 235 230 219 219 237 209 205 197 182 202 185 174 194 209
301 296 305 301 298 300 292 269 263 261 266 265 258 257 253 253 250 248 242 250 258 259 255 245 237 224 224 224 226 205 166 208 192 196 179 181 179 182
306 307 307 316 303 296 297 277 258 243 242 251 257 259 259 253 251 248 247 244 246 248 244 232 222 208 214 221 212 230 181 203 187 188 197 189 185 189
304 298 329 330 332 327 311 290 264 257 252 247 249 252 252 250 249 249 248 248 234 243 242 225 203 217 232 226 220 227 225 212 197 192 173 199 200 194
309 325 331 342 343 340 347 320 288 266 252 248 249 246 247 248 249 241 238 240 247 236 235 198 153 148 124 123 32 211 174 199 184 190 195 201 203 193
332 329 329 338 345 348 349 341 332 293 271 264 266 270 266 260 244 243 231 237 239 232 228 214 197 208 219 222 141 6 152 175 163 174 58 122 155 122
314 325 328 334 339 345 344 343 346 347 341 278 269 263 254 255 241 236 235 237 241 239 238 230 221 209 210 212 164 144 38 168 187 136 130 85 78 102
304 310 306 318 324 336 342 344 349 350 351 349 331 317 297 254 248 235 224 217 218 229 232 231 237 158 122 109 106 94 33 8 243 136 142 113 121 106
260 276 295 300 303 311 318 329 350 0 358 356 351 344 339 338 316 231 224 230 229 234 211 133 166 129 85 110 117 128 117 96 71 70 56 115 165 175
245 248 275 285 296 300 312 322 334 341 358 359 352 351 345 353 352 342 216 176 129 112 133 119 135 201 98 150 125 120 115 114 92 80 55 59 91 95